星链-6171 (STARLINK-6171 )

导读 | 星芒AI

STARLINK-6171 是 SpaceX 星链计划中的一颗低轨通信卫星,属于第 21 批星链组网卫星。该卫星于 2023 年 9 月发射,部署在约 550 公里的近地轨道,旨在为全球用户提供高速互联网服务。作为星链星座的一部分,STARLINK-6171 采用先进推进系统和激光通信技术,提升网络稳定性和数据传输效率,支持偏远地区网络覆盖,助力实现全球宽带连接目标。

基本信息
目录编号:
56883
目录名称:
STARLINK-6171
国际标识:
2023-083H
轨道中心:
EARTH
卫星名称:
星链-6171
卫星全名:
星链-6171 (STARLINK-6171 )
卫星状态:
在轨 (已飞行923 天)
发射日期:
2023-06-12 UTC
国别 :
美国 (US)
星等 :
--
轨道信息
数据来源 国际轨道数据 AOE轨道数据
星历时间 2025-12-21T11:43:05+0800
14小时前
查看轨道信息
2025-12-17T12:00:00+0800
4天前
查看轨道信息
半长轴 6937.203km 6937.17km
偏心率 0.0001215 0.0002698
轨道倾角 43.003° 42.995°
近地点辐角 273.305° 290.755°
升交点赤经 148.780° 170.457°
平近点角 86.766° 71.591°
近地点 558.223km 557.163km
远地点 559.909km 560.907km
周期 95.838分钟 95.837分钟
每日圈数 15.025405 15.025514
详细信息
固有亮度:
5
最大亮度:
2.4
卫星平台:
Starlink v1.5
覆盖范围:
全球
运营商:
太空探索技术公司
运营商所在国:
美国
制造商(研发单位):
太空探索技术公司
制造商所在国:
美国
使用方式:
暂无
卫星简介
星链(Starlink)计划是由太空探索技术公司(SpaceX)提出的一个巨型低轨卫星互联网星座项目,计划在2019年至2024年间在太空搭建由约1.2万颗卫星组成的“星链”网络,其中1584颗将部署在地球上空550千米处的近地轨道,并从2020年开始工作。该卫星仍在工作。
2D轨道图
3D轨道图
轨道高度分析图
轨道倾角分析图
轨道综合分析图
查看轨道综合分析图